Location: Cheching
(60.0667°N, 164.2167°W)
Time: 14:16:21
(UTC+00:00)

STRAND 1 - Pass Details

Date: 21 January 2021
Orbit: 768 x 780 km, 98.4° (Epoch: 04 March)

Event Time Altitude Azimuth Distance (km) Brightness Sun altitude
Rises 14:09:42 0° 87° (E) 3,253 ? -38.5°
Reaches altitude 10° 14:13:11 10° 62° (ENE) 2,331 ? -38.2°
Maximum altitude 14:15:35 13° 34° (NNE) 2,099 ? -37.9°
Drops below altitude 10° 14:18:00 10° 5° (N) 2,339 ? -37.6°
Enters shadow 14:18:56 - 357° (N) 2,540 ? -37.5°
